Location: Peterborough
(44.3091°N, 78.3197°W)
Time: 06:44:21
(UTC-04:00)

Vanguard 3 - Pass Details

Date: 24 February 2024
Orbit: 510 x 3236 km, 33.3° (Epoch: 12 April)

Event Time Altitude Azimuth Distance (km) Brightness Sun altitude
Rises 17:26:51 0° 179° (S) 6,438 12.0 3.9°
Reaches altitude 10° 17:34:12 10° 158° (SSE) 5,849 11.5 2.6°
Maximum altitude 17:42:34 15° 131° (SE) 5,703 11.1 1.2°
Drops below altitude 10° 17:51:14 10° 104° (ESE) 6,150 11.1 -0.3°
Enters shadow 17:58:31 - 87° (E) 6,897 11.2 -1.6°
Sets 17:59:12 0° 86° (E) 6,980 - -1.7°
